| time (UTC) | temp C | wind direction | speed KPH | gust KPH | rain 1hr cm | rain 24hr cm | rain mn cm | humidity % | barometer mb |
| 20260504081535 | 19 | 0 | 0.0 | 4.8 | 0.00 | 0.00 | 0.00 | 81 | 1016.1 |
| 20260504081015 | 19 | 0 | 0.0 | 1.6 | 0.00 | 0.00 | 0.00 | 81 | 1016.0 |
| 20260504080515 | 19 | 0 | 0.0 | 4.8 | 0.00 | 0.00 | 0.00 | 81 | 1016.1 |
| 20260504050516 | 21 | 0 | 0.0 | 6.4 | 0.00 | 0.00 | 0.00 | 75 | 1017.0 |
| 20260504045517 | 21 | 82 | 1.6 | 12.9 | 0.00 | 0.00 | 0.00 | 76 | 1017.0 |
| 20260504045016 | 21 | 83 | 4.8 | 12.9 | 0.00 | 0.00 | 0.00 | 75 | 1017.0 |
| 20260504044530 | 21 | 0 | 0.0 | 11.3 | 0.00 | 0.00 | 0.00 | 75 | 1017.0 |
| 20260504044019 | 21 | 49 | 3.2 | 11.3 | 0.00 | 0.00 | 0.00 | 75 | 1017.0 |
| 20260504043517 | 21 | 65 | 3.2 | 9.7 | 0.00 | 0.00 | 0.00 | 75 | 1016.9 |
| 20260504043032 | 21 | 75 | 1.6 | 14.5 | 0.00 | 0.00 | 0.00 | 75 | 1017.1 |
| 20260504042517 | 21 | 65 | 4.8 | 14.5 | 0.00 | 0.00 | 0.00 | 75 | 1017.2 |
| 20260504042016 | 21 | 77 | 0.0 | 9.7 | 0.00 | 0.00 | 0.00 | 76 | 1017.5 |
| 20260504041532 | 21 | 61 | 1.6 | 9.7 | 0.00 | 0.00 | 0.00 | 76 | 1017.5 |
| 20260504041016 | 21 | 108 | 1.6 | 6.4 | 0.00 | 0.00 | 0.00 | 76 | 1017.6 |
| 20260504040516 | 21 | 71 | 1.6 | 8.0 | 0.00 | 0.00 | 0.00 | 76 | 1017.7 |
| 20260504040041 | 21 | 63 | 1.6 | 8.0 | 0.00 | 0.00 | 0.00 | 76 | 1017.8 |
| 20260504035520 | 21 | 109 | 1.6 | 6.4 | 0.00 | 0.00 | 0.00 | 76 | 1017.8 |
| 20260504035015 | 21 | 86 | 0.0 | 6.4 | 0.00 | 0.00 | 0.00 | 76 | 1017.8 |
| 20260504034534 | 21 | 115 | 0.0 | 8.0 | 0.00 | 0.00 | 0.00 | 76 | 1017.9 |
| 20260504034016 | 21 | 0 | 0.0 | 8.0 | 0.00 | 0.00 | 0.00 | 75 | 1017.8 |
| 20260504033516 | 21 | 0 | 0.0 | 11.3 | 0.00 | 0.00 | 0.00 | 75 | 1017.8 |
| 20260504033045 | 21 | 103 | 0.0 | 11.3 | 0.00 | 0.00 | 0.00 | 75 | 1017.8 |
| 20260504032516 | 21 | 95 | 0.0 | 3.2 | 0.00 | 0.00 | 0.00 | 74 | 1017.8 |
| 20260504032014 | 21 | 0 | 0.0 | 3.2 | 0.00 | 0.00 | 0.00 | 74 | 1017.7 |
| 20260504031533 | 21 | 0 | 0.0 | 1.6 | 0.00 | 0.00 | 0.00 | 73 | 1017.6 |
| 20260504031016 | 21 | 0 | 0.0 | 1.6 | 0.00 | 0.00 | 0.00 | 73 | 1017.5 |
| 20260504030515 | 21 | 0 | 0.0 | 1.6 | 0.00 | 0.00 | 0.00 | 73 | 1017.5 |
| 20260504030033 | 21 | 0 | 0.0 | 4.8 | 0.00 | 0.00 | 0.00 | 73 | 1017.6 |
| 20260504025519 | 21 | 31 | 0.0 | 4.8 | 0.00 | 0.00 | 0.00 | 73 | 1017.4 |
| 20260504025022 | 21 | 0 | 0.0 | 4.8 | 0.00 | 0.00 | 0.00 | 72 | 1017.4 |
| 20260504024543 | 21 | 0 | 0.0 | 4.8 | 0.00 | 0.00 | 0.00 | 72 | 1017.4 |
| 20260504024017 | 21 | 0 | 0.0 | 6.4 | 0.00 | 0.00 | 0.00 | 72 | 1017.4 |
| 20260504023517 | 21 | 44 | 0.0 | 6.4 | 0.00 | 0.00 | 0.00 | 72 | 1017.2 |
| 20260504023033 | 21 | 54 | 0.0 | 8.0 | 0.00 | 0.00 | 0.00 | 72 | 1017.2 |
| 20260504022516 | 21 | 91 | 1.6 | 8.0 | 0.00 | 0.00 | 0.00 | 72 | 1017.3 |
| 20260504022017 | 21 | 87 | 0.0 | 4.8 | 0.00 | 0.00 | 0.00 | 72 | 1017.2 |
| 20260504021534 | 21 | 11 | 0.0 | 6.4 | 0.00 | 0.00 | 0.00 | 72 | 1017.2 |
| 20260504021016 | 21 | 0 | 1.6 | 8.0 | 0.00 | 0.00 | 0.00 | 72 | 1017.1 |
| 20260504020516 | 21 | 26 | 0.0 | 8.0 | 0.00 | 0.00 | 0.00 | 72 | 1016.9 |
| 20260504020030 | 21 | 336 | 1.6 | 8.0 | 0.00 | 0.00 | 0.00 | 72 | 1016.9 |
| 20260504015516 | 21 | 53 | 0.0 | 6.4 | 0.00 | 0.00 | 0.00 | 71 | 1016.8 |
| 20260504015016 | 21 | 0 | 0.0 | 6.4 | 0.00 | 0.00 | 0.00 | 71 | 1016.9 |
| 20260504014530 | 21 | 25 | 0.0 | 6.4 | 0.00 | 0.00 | 0.00 | 71 | 1016.7 |
| 20260504014018 | 21 | 0 | 0.0 | 4.8 | 0.00 | 0.00 | 0.00 | 71 | 1016.6 |
| 20260504013516 | 22 | 0 | 0.0 | 1.6 | 0.00 | 0.00 | 0.00 | 70 | 1016.5 |
| 20260504013033 | 22 | 0 | 0.0 | 3.2 | 0.00 | 0.00 | 0.00 | 70 | 1016.3 |
| 20260504012516 | 22 | 0 | 0.0 | 3.2 | 0.00 | 0.00 | 0.00 | 70 | 1016.3 |
| 20260504012015 | 22 | 0 | 0.0 | 4.8 | 0.00 | 0.00 | 0.00 | 70 | 1016.3 |
| 20260504011530 | 22 | 0 | 1.6 | 6.4 | 0.00 | 0.00 | 0.00 | 69 | 1016.2 |
| 20260504011016 | 22 | 12 | 0.0 | 6.4 | 0.00 | 0.00 | 0.00 | 69 | 1016.2 |
| 20260504010519 | 22 | 0 | 0.0 | 4.8 | 0.00 | 0.00 | 0.00 | 68 | 1016.1 |
| 20260504010031 | 22 | 319 | 0.0 | 8.0 | 0.00 | 0.00 | 0.00 | 68 | 1016.2 |
| 20260504005516 | 22 | 315 | 1.6 | 8.0 | 0.00 | 0.00 | 0.00 | 68 | 1016.0 |
| 20260504005016 | 22 | 0 | 1.6 | 11.3 | 0.00 | 0.00 | 0.00 | 68 | 1015.8 |
| 20260504004541 | 22 | 31 | 1.6 | 11.3 | 0.00 | 0.00 | 0.00 | 68 | 1015.9 |
| 20260504004016 | 22 | 0 | 1.6 | 14.5 | 0.00 | 0.00 | 0.00 | 67 | 1015.9 |
| 20260504003515 | 22 | 0 | 3.2 | 14.5 | 0.00 | 0.00 | 0.00 | 67 | 1015.9 |
| 20260504003032 | 22 | 0 | 1.6 | 14.5 | 0.00 | 0.00 | 0.00 | 67 | 1015.9 |
| 20260504002516 | 22 | 0 | 3.2 | 8.0 | 0.00 | 0.00 | 0.00 | 67 | 1015.9 |
| 20260504002017 | 23 | 290 | 0.0 | 8.0 | 0.00 | 0.00 | 0.00 | 67 | 1015.7 |
| 20260504001543 | 23 | 31 | 3.2 | 9.7 | 0.00 | 0.00 | 0.00 | 66 | 1015.6 |
| 20260504001020 | 23 | 0 | 1.6 | 9.7 | 0.00 | 0.00 | 0.00 | 66 | 1015.6 |
| 20260504000519 | 23 | 345 | 1.6 | 8.0 | 0.00 | 0.00 | 0.00 | 66 | 1015.4 |
| 20260504000034 | 23 | 57 | 1.6 | 12.9 | 0.00 | 0.00 | 0.00 | 66 | 1015.4 |
| 20260503235517 | 23 | 22 | 1.6 | 12.9 | 0.00 | 0.00 | 0.00 | 66 | 1015.4 |
| 20260503235016 | 23 | 331 | 3.2 | 12.9 | 0.00 | 0.00 | 0.00 | 66 | 1015.4 |
| 20260503234532 | 23 | 317 | 3.2 | 14.5 | 0.00 | 0.00 | 0.00 | 66 | 1015.5 |
| 20260503234016 | 23 | 320 | 4.8 | 16.1 | 0.00 | 0.00 | 0.00 | 65 | 1015.5 |
| 20260503233516 | 23 | 318 | 1.6 | 16.1 | 0.00 | 0.00 | 0.00 | 65 | 1015.4 |
| 20260503233034 | 24 | 355 | 6.4 | 16.1 | 0.00 | 0.00 | 0.00 | 65 | 1015.4 |
| 20260503232516 | 24 | 315 | 4.8 | 14.5 | 0.00 | 0.00 | 0.00 | 65 | 1015.4 |
| 20260503232015 | 24 | 314 | 4.8 | 14.5 | 0.00 | 0.00 | 0.00 | 64 | 1015.4 |
| 20260503231536 | 24 | 289 | 4.8 | 14.5 | 0.00 | 0.00 | 0.00 | 64 | 1015.4 |
| 20260503231019 | 25 | 328 | 4.8 | 14.5 | 0.00 | 0.00 | 0.00 | 63 | 1015.3 |
| 20260503230516 | 25 | 303 | 4.8 | 16.1 | 0.00 | 0.00 | 0.00 | 62 | 1015.2 |
| 20260503230035 | 25 | 333 | 4.8 | 16.1 | 0.00 | 0.00 | 0.00 | 62 | 1015.2 |
| 20260503225516 | 25 | 304 | 4.8 | 16.1 | 0.00 | 0.03 | 0.00 | 61 | 1015.2 |
| 20260503225016 | 26 | 298 | 8.0 | 16.1 | 0.00 | 0.03 | 0.00 | 60 | 1015.2 |
| 20260503224535 | 26 | 348 | 4.8 | 19.3 | 0.00 | 0.03 | 0.00 | 59 | 1015.0 |
| 20260503224017 | 26 | 51 | 4.8 | 19.3 | 0.00 | 0.03 | 0.00 | 58 | 1015.0 |
| 20260503223516 | 27 | 340 | 3.2 | 17.7 | 0.00 | 0.03 | 0.00 | 57 | 1015.0 |
| 20260503223033 | 27 | 0 | 6.4 | 17.7 | 0.00 | 0.03 | 0.00 | 56 | 1015.2 |
| 20260503222516 | 27 | 360 | 4.8 | 16.1 | 0.00 | 0.03 | 0.00 | 56 | 1015.2 |
| 20260503222016 | 27 | 302 | 6.4 | 16.1 | 0.00 | 0.03 | 0.00 | 55 | 1015.2 |
| 20260503221530 | 27 | 300 | 3.2 | 14.5 | 0.00 | 0.03 | 0.00 | 55 | 1015.2 |
| 20260503221017 | 28 | 0 | 1.6 | 11.3 | 0.00 | 0.03 | 0.00 | 54 | 1015.2 |
| 20260503220516 | 28 | 5 | 1.6 | 12.9 | 0.00 | 0.03 | 0.00 | 54 | 1015.2 |
| 20260503220038 | 28 | 0 | 1.6 | 12.9 | 0.00 | 0.03 | 0.00 | 52 | 1015.1 |
| 20260503215516 | 27 | 55 | 1.6 | 11.3 | 0.00 | 0.15 | 0.00 | 50 | 1015.3 |
| 20260503215016 | 27 | 59 | 3.2 | 11.3 | 0.00 | 0.15 | 0.00 | 50 | 1015.3 |
| 20260503214534 | 27 | 95 | 1.6 | 9.7 | 0.00 | 0.15 | 0.00 | 49 | 1015.2 |
| 20260503214016 | 27 | 0 | 1.6 | 11.3 | 0.00 | 0.15 | 0.00 | 52 | 1015.3 |
| 20260503213517 | 28 | 67 | 3.2 | 11.3 | 0.00 | 0.15 | 0.00 | 51 | 1015.3 |
| 20260503213032 | 28 | 62 | 3.2 | 9.7 | 0.00 | 0.15 | 0.00 | 51 | 1015.3 |
| 20260503212516 | 28 | 344 | 1.6 | 9.7 | 0.00 | 0.15 | 0.00 | 50 | 1015.4 |
| 20260503212017 | 28 | 82 | 0.0 | 6.4 | 0.00 | 0.15 | 0.00 | 50 | 1015.4 |
| 20260503211539 | 28 | 0 | 0.0 | 9.7 | 0.00 | 0.15 | 0.00 | 50 | 1015.5 |
| 20260503211014 | 28 | 94 | 1.6 | 11.3 | 0.00 | 0.15 | 0.00 | 49 | 1015.5 |
| 20260503210516 | 28 | 65 | 3.2 | 16.1 | 0.00 | 0.15 | 0.00 | 48 | 1015.5 |
| 20260503210033 | 28 | 75 | 3.2 | 16.1 | 0.00 | 0.15 | 0.00 | 49 | 1015.5 |
| 20260503205522 | 28 | 0 | 1.6 | 6.4 | 0.00 | 0.25 | 0.00 | 49 | 1015.5 |
| 20260503205017 | 28 | 329 | 1.6 | 16.1 | 0.00 | 0.25 | 0.00 | 51 | 1015.6 |
| 20260503204533 | 28 | 36 | 1.6 | 16.1 | 0.00 | 0.25 | 0.00 | 50 | 1015.5 |
| 20260503204016 | 28 | 74 | 1.6 | 14.5 | 0.00 | 0.25 | 0.00 | 50 | 1015.5 |
| 20260503203516 | 28 | 70 | 1.6 | 14.5 | 0.00 | 0.25 | 0.00 | 51 | 1015.4 |
| 20260503203032 | 28 | 61 | 3.2 | 12.9 | 0.00 | 0.25 | 0.00 | 50 | 1015.7 |
| 20260503202516 | 28 | 45 | 1.6 | 6.4 | 0.00 | 0.25 | 0.00 | 52 | 1015.6 |
| 20260503202017 | 28 | 52 | 1.6 | 9.7 | 0.00 | 0.25 | 0.00 | 53 | 1015.7 |
| 20260503201530 | 28 | 87 | 3.2 | 11.3 | 0.00 | 0.25 | 0.00 | 53 | 1015.7 |
| 20260503201016 | 28 | 59 | 4.8 | 11.3 | 0.00 | 0.25 | 0.00 | 51 | 1015.8 |
| 20260503200516 | 28 | 37 | 3.2 | 11.3 | 0.00 | 0.25 | 0.00 | 54 | 1016.0 |
| 20260503200031 | 28 | 296 | 3.2 | 12.9 | 0.00 | 0.25 | 0.00 | 52 | 1016.0 |
| 20260503195517 | 28 | 59 | 3.2 | 12.9 | 0.00 | 0.89 | 0.00 | 54 | 1016.1 |
| 20260503195014 | 27 | 32 | 3.2 | 12.9 | 0.00 | 0.89 | 0.00 | 55 | 1016.1 |
| 20260503194535 | 27 | 13 | 3.2 | 12.9 | 0.00 | 0.89 | 0.00 | 54 | 1016.2 |
| 20260503194015 | 27 | 74 | 3.2 | 11.3 | 0.00 | 0.89 | 0.00 | 53 | 1016.2 |
| 20260503193516 | 27 | 123 | 3.2 | 11.3 | 0.00 | 0.89 | 0.00 | 57 | 1016.4 |
| 20260503193040 | 27 | 61 | 3.2 | 16.1 | 0.00 | 0.89 | 0.00 | 57 | 1016.5 |
| 20260503192514 | 27 | 55 | 6.4 | 16.1 | 0.00 | 0.89 | 0.00 | 55 | 1016.5 |
| 20260503192015 | 27 | 83 | 4.8 | 14.5 | 0.00 | 0.89 | 0.00 | 55 | 1016.5 |
| 20260503191530 | 27 | 44 | 1.6 | 9.7 | 0.00 | 0.89 | 0.00 | 58 | 1016.8 |
| 20260503191021 | 27 | 87 | 3.2 | 14.5 | 0.00 | 0.89 | 0.00 | 57 | 1017.0 |
| 20260503190517 | 27 | 144 | 3.2 | 14.5 | 0.00 | 0.89 | 0.00 | 57 | 1017.0 |
| 20260503190041 | 27 | 71 | 3.2 | 11.3 | 0.00 | 0.89 | 0.00 | 56 | 1017.1 |
| 20260503185515 | 27 | 0 | 1.6 | 9.7 | 0.00 | 1.80 | 0.00 | 56 | 1017.3 |
| 20260503185016 | 27 | 107 | 1.6 | 14.5 | 0.00 | 1.80 | 0.00 | 56 | 1017.4 |
| 20260503184537 | 27 | 0 | 4.8 | 14.5 | 0.00 | 1.80 | 0.00 | 57 | 1017.5 |
| 20260503184015 | 27 | 77 | 1.6 | 9.7 | 0.00 | 1.80 | 0.00 | 58 | 1017.4 |
| 20260503183515 | 26 | 90 | 3.2 | 12.9 | 0.00 | 1.80 | 0.00 | 57 | 1017.4 |
| 20260503183036 | 26 | 49 | 4.8 | 12.9 | 0.00 | 1.80 | 0.00 | 58 | 1017.4 |
| 20260503182523 | 27 | 69 | 1.6 | 8.0 | 0.00 | 1.80 | 0.00 | 56 | 1017.5 |
| 20260503182017 | 27 | 63 | 1.6 | 12.9 | 0.00 | 1.80 | 0.00 | 56 | 1017.6 |
| 20260503181534 | 27 | 98 | 3.2 | 12.9 | 0.00 | 1.80 | 0.00 | 55 | 1017.6 |
| 20260503181018 | 27 | 84 | 3.2 | 12.9 | 0.00 | 1.80 | 0.00 | 57 | 1017.8 |
| 20260503180515 | 27 | 67 | 1.6 | 11.3 | 0.00 | 1.80 | 0.00 | 57 | 1017.8 |
| 20260503180032 | 27 | 250 | 3.2 | 14.5 | 0.00 | 1.80 | 0.00 | 57 | 1017.8 |
| 20260503175516 | 27 | 67 | 1.6 | 14.5 | 0.00 | 1.80 | 0.00 | 59 | 1017.8 |
| 20260503175020 | 27 | 113 | 4.8 | 14.5 | 0.00 | 1.80 | 0.00 | 58 | 1017.8 |
| 20260503174543 | 26 | 97 | 3.2 | 9.7 | 0.00 | 1.80 | 0.00 | 60 | 1017.8 |
| 20260503174015 | 26 | 52 | 3.2 | 16.1 | 0.00 | 1.80 | 0.00 | 58 | 1017.8 |
| 20260503173518 | 26 | 90 | 6.4 | 16.1 | 0.00 | 1.80 | 0.00 | 59 | 1017.9 |
| 20260503173033 | 26 | 98 | 4.8 | 19.3 | 0.00 | 1.80 | 0.00 | 60 | 1018.0 |
| 20260503172514 | 26 | 46 | 6.4 | 19.3 | 0.00 | 1.80 | 0.00 | 61 | 1018.0 |
| 20260503172015 | 26 | 51 | 6.4 | 16.1 | 0.00 | 1.80 | 0.00 | 60 | 1018.0 |
| 20260503171530 | 26 | 40 | 4.8 | 14.5 | 0.00 | 1.80 | 0.00 | 59 | 1018.1 |
| 20260503171016 | 26 | 59 | 3.2 | 16.1 | 0.00 | 1.80 | 0.00 | 61 | 1018.1 |
| 20260503170515 | 26 | 30 | 6.4 | 17.7 | 0.00 | 1.80 | 0.00 | 61 | 1018.0 |
| 20260503150517 | 22 | 61 | 6.4 | 19.3 | 0.00 | 1.80 | 0.00 | 70 | 1018.7 |
| 20260503131014 | 17 | 5 | 0.0 | 8.0 | 0.00 | 1.80 | 0.00 | 89 | 1017.7 |
| 20260503130517 | 17 | 329 | 1.6 | 12.9 | 0.00 | 1.80 | 0.00 | 89 | 1017.8 |
| 20260503110517 | 17 | 40 | 1.6 | 8.0 | 0.00 | 1.80 | 0.00 | 90 | 1016.4 |